TimeAKST,TemperatureF,Dew PointF,Humidity,Sea Level PressureIn,VisibilityMPH,Wind Direction,Wind SpeedMPH,Gust SpeedMPH,PrecipitationIn,Events,Conditions,WindDirDegrees,DateUTC
12:16 AM,17.6,15.8,93,29.42,10.0,Calm,Calm,-,N/A,,Clear,0,2014-02-19 09:16:00
12:36 AM,15.8,12.2,86,29.42,10.0,Calm,Calm,-,N/A,,Clear,0,2014-02-19 09:36:00
12:56 AM,15.8,15.8,100,29.43,10.0,Calm,Calm,-,N/A,,Clear,0,2014-02-19 09:56:00
1:16 AM,15.8,12.2,86,29.43,10.0,Calm,Calm,-,N/A,,Clear,0,2014-02-19 10:16:00
1:36 AM,14.0,12.2,93,29.44,10.0,Calm,Calm,-,N/A,,Clear,0,2014-02-19 10:36:00
1:56 AM,12.2,12.2,100,29.44,10.0,North,3.5,-,N/A,,Clear,360,2014-02-19 10:56:00
2:16 AM,14.0,14.0,100,29.45,10.0,Calm,Calm,-,N/A,,Clear,0,2014-02-19 11:16:00
2:36 AM,15.8,14.0,93,29.45,10.0,Calm,Calm,-,N/A,,Clear,0,2014-02-19 11:36:00
2:56 AM,10.4,8.6,92,29.46,10.0,Calm,Calm,-,N/A,,Clear,0,2014-02-19 11:56:00
3:16 AM,12.2,10.4,92,29.46,10.0,Calm,Calm,-,N/A,,Clear,0,2014-02-19 12:16:00
3:36 AM,12.2,6.8,79,29.47,10.0,NNW,3.5,-,N/A,,Clear,340,2014-02-19 12:36:00
3:56 AM,12.2,8.6,85,29.47,10.0,Calm,Calm,-,N/A,,Clear,0,2014-02-19 12:56:00
4:16 AM,12.2,12.2,100,29.47,10.0,Calm,Calm,-,N/A,,Clear,0,2014-02-19 13:16:00
4:36 AM,10.4,8.6,92,29.48,10.0,Calm,Calm,-,N/A,,Clear,0,2014-02-19 13:36:00
4:56 AM,8.6,5.0,85,29.48,10.0,Calm,Calm,-,N/A,,Clear,0,2014-02-19 13:56:00
5:16 AM,8.6,8.6,100,29.49,10.0,Calm,Calm,-,N/A,,Clear,0,2014-02-19 14:16:00
5:36 AM,8.6,6.8,92,29.49,10.0,Calm,Calm,-,N/A,,Clear,0,2014-02-19 14:36:00
5:56 AM,10.4,6.8,85,29.50,10.0,Calm,Calm,-,N/A,,Clear,0,2014-02-19 14:56:00
6:16 AM,8.6,6.8,92,29.50,10.0,Calm,Calm,-,N/A,,Clear,0,2014-02-19 15:16:00
6:36 AM,10.4,6.8,85,29.51,10.0,Calm,Calm,-,N/A,,Clear,0,2014-02-19 15:36:00
6:56 AM,8.6,8.6,100,29.51,10.0,Calm,Calm,-,N/A,,Clear,0,2014-02-19 15:56:00
7:16 AM,8.6,3.2,79,29.52,10.0,Calm,Calm,-,N/A,,Clear,0,2014-02-19 16:16:00
7:36 AM,8.6,5.0,85,29.52,10.0,North,4.6,-,N/A,,Clear,350,2014-02-19 16:36:00
7:56 AM,10.4,10.4,100,29.53,10.0,North,3.5,-,N/A,,Clear,360,2014-02-19 16:56:00
8:16 AM,8.6,8.6,100,29.53,10.0,Calm,Calm,-,N/A,,Clear,0,2014-02-19 17:16:00
8:36 AM,12.2,10.4,92,29.54,10.0,Calm,Calm,-,N/A,,Clear,0,2014-02-19 17:36:00
8:56 AM,12.2,10.4,92,29.55,10.0,Calm,Calm,-,N/A,,Clear,0,2014-02-19 17:56:00
9:16 AM,15.8,12.2,86,29.56,10.0,Calm,Calm,-,N/A,,Clear,0,2014-02-19 18:16:00
9:36 AM,15.8,15.8,100,29.56,10.0,Calm,Calm,-,N/A,,Clear,0,2014-02-19 18:36:00
9:56 AM,17.6,15.8,93,29.57,10.0,North,3.5,-,N/A,,Clear,350,2014-02-19 18:56:00
10:16 AM,21.2,19.4,93,29.58,10.0,Calm,Calm,-,N/A,,Clear,0,2014-02-19 19:16:00
10:36 AM,24.8,24.8,100,29.58,10.0,Calm,Calm,-,N/A,,Clear,0,2014-02-19 19:36:00
10:56 AM,26.6,26.6,100,29.59,10.0,Calm,Calm,-,N/A,,Clear,0,2014-02-19 19:56:00
11:16 AM,28.4,26.6,93,29.59,10.0,Calm,Calm,-,N/A,,Clear,0,2014-02-19 20:16:00
11:56 AM,32.0,24.8,75,29.60,10.0,Calm,Calm,-,N/A,,Clear,0,2014-02-19 20:56:00
12:16 PM,32.0,23.0,69,29.60,10.0,Calm,Calm,-,N/A,,Clear,0,2014-02-19 21:16:00
12:36 PM,32.0,23.0,69,29.61,10.0,Calm,Calm,-,N/A,,Clear,0,2014-02-19 21:36:00
12:56 PM,33.8,21.2,60,29.61,10.0,Calm,Calm,-,N/A,,Clear,0,2014-02-19 21:56:00
1:16 PM,33.8,21.2,60,29.61,10.0,Calm,Calm,-,N/A,,Clear,0,2014-02-19 22:16:00
1:36 PM,33.8,24.8,70,29.61,10.0,Calm,Calm,-,N/A,,Clear,0,2014-02-19 22:36:00
1:56 PM,33.8,23.0,65,29.61,10.0,Calm,Calm,-,N/A,,Clear,0,2014-02-19 22:56:00
2:16 PM,33.8,21.2,60,29.62,10.0,Calm,Calm,-,N/A,,Clear,0,2014-02-19 23:16:00
2:36 PM,33.8,23.0,65,29.62,10.0,SE,3.5,-,N/A,,Clear,140,2014-02-19 23:36:00
2:56 PM,33.8,21.2,60,29.62,10.0,SE,4.6,-,N/A,,Clear,130,2014-02-19 23:56:00
3:16 PM,33.8,21.2,60,29.62,10.0,SE,3.5,-,N/A,,Clear,130,2014-02-20 00:16:00
3:36 PM,33.8,21.2,60,29.63,10.0,Calm,Calm,-,N/A,,Clear,0,2014-02-20 00:36:00
3:56 PM,33.8,21.2,60,29.63,10.0,SE,4.6,-,N/A,,Clear,140,2014-02-20 00:56:00
4:16 PM,33.8,21.2,60,29.64,10.0,SE,4.6,-,N/A,,Clear,140,2014-02-20 01:16:00
4:36 PM,32.0,21.2,64,29.64,10.0,SE,3.5,-,N/A,,Scattered Clouds,140,2014-02-20 01:36:00
4:56 PM,30.2,24.8,80,29.64,10.0,NNW,3.5,-,N/A,,Overcast,340,2014-02-20 01:56:00
5:16 PM,28.4,21.2,74,29.64,10.0,NNW,5.8,-,N/A,,Overcast,330,2014-02-20 02:16:00
5:36 PM,28.4,23.0,80,29.65,10.0,NNW,4.6,-,N/A,,Mostly Cloudy,330,2014-02-20 02:36:00
5:56 PM,28.4,23.0,80,29.65,10.0,NNW,4.6,-,N/A,,Clear,330,2014-02-20 02:56:00
6:16 PM,24.8,21.2,86,29.65,10.0,NNW,4.6,-,N/A,,Clear,340,2014-02-20 03:16:00
6:36 PM,26.6,24.8,93,29.65,10.0,Calm,Calm,-,N/A,,Clear,0,2014-02-20 03:36:00
6:56 PM,26.6,24.8,93,29.65,10.0,NNW,3.5,-,N/A,,Clear,340,2014-02-20 03:56:00
7:16 PM,21.2,17.6,86,29.66,2.0,Calm,Calm,-,N/A,,Clear,0,2014-02-20 04:16:00
7:36 PM,23.0,21.2,93,29.66,10.0,Calm,Calm,-,N/A,,Clear,0,2014-02-20 04:36:00
7:56 PM,23.0,19.4,86,29.66,10.0,North,3.5,-,N/A,,Clear,350,2014-02-20 04:56:00
8:16 PM,19.4,19.4,100,29.66,9.0,Calm,Calm,-,N/A,,Clear,0,2014-02-20 05:16:00
8:36 PM,19.4,17.6,93,29.66,10.0,Calm,Calm,-,N/A,,Clear,0,2014-02-20 05:36:00
8:56 PM,19.4,19.4,100,29.67,10.0,Calm,Calm,-,N/A,,Clear,0,2014-02-20 05:56:00
9:16 PM,17.6,17.6,100,29.67,10.0,Calm,Calm,-,N/A,,Clear,0,2014-02-20 06:16:00
9:36 PM,17.6,15.8,93,29.67,5.0,Calm,Calm,-,N/A,,Clear,0,2014-02-20 06:36:00
9:56 PM,15.8,12.2,86,29.67,10.0,Calm,Calm,-,N/A,,Clear,0,2014-02-20 06:56:00
10:16 PM,15.8,14.0,93,29.67,10.0,Calm,Calm,-,N/A,,Partly Cloudy,0,2014-02-20 07:16:00
10:36 PM,15.8,10.4,79,29.67,10.0,North,3.5,-,N/A,,Mostly Cloudy,360,2014-02-20 07:36:00
10:56 PM,15.8,12.2,86,29.67,10.0,NNW,3.5,-,N/A,,Overcast,330,2014-02-20 07:56:00
11:16 PM,15.8,15.8,100,29.67,10.0,Calm,Calm,-,N/A,,Overcast,0,2014-02-20 08:16:00
11:36 PM,15.8,14.0,93,29.67,10.0,NNW,4.6,-,N/A,,Overcast,340,2014-02-20 08:36:00
11:56 PM,17.6,15.8,93,29.68,10.0,Calm,Calm,-,N/A,,Overcast,0,2014-02-20 08:56:00